Regional Weather Roundup
Issued by NWS Sterling, VA

Home | Current Version | Previous Version | Text Only | Print | Product List | Glossary On
Versions: 1 2 3 4 5 6 7 8 9 10 11 12 13 14 15 16 17 18 19 20 21 22 23 24 25 26 27 28 29 30 31 32 33 34 35 36 37 38 39 40 41 42 43 44 45 46 47 48 49 50
000
ASUS41 KLWX 280510
RWRLWX

REGIONAL WEATHER ROUNDUP
NATIONAL WEATHER SERVICE BALTIMORE MD/WASHINGTON DC
100 AM EDT SAT MAY 28 2016

Note: "FAIR" indicates few or no clouds below 12,000 feet
with no significant weather and/or obstructions to visibility.
 TC=TEMPERATURE CELSIUS

 * =Non NWS site. Station does not report precipitation (e.g. rain,
    snow, etc.), thunder, or fog.

DCZ001-MDZ009-015-VAZ040>042-051-053>054-280600-
WASHINGTON METRO

CITY           SKY/WX    TMP DP  RH WIND       PRES   REMARKS
WASHINGTON NAT NOT AVBL
DULLES         FAIR      74  66  76 S3        30.10R
ANDREWS AFB    CLEAR     73  65  76 S10       30.10R
FT BELVOIR     FAIR      71  68  89 CALM      30.10S
QUANTICO       FAIR      74  68  81 S12       30.11S
COLLEGE PARK*  FAIR      73  66  78 CALM      30.10R
LEESBURG*      FAIR      73  70  88 S12       30.10F
MANASSAS*      MOCLDY    73  68  83 CALM      30.10S

$$

MDZ006>007-011-014-280600-
BALTIMORE METRO

CITY           SKY/WX    TMP DP  RH WIND       PRES   REMARKS
BWI AIRPORT    MOCLDY    71  64  78 CALM      30.09S
MD SCIENCE CTR   N/A     74  64  71 MISG      30.10S
MARTIN STATE   PTCLDY    72  66  83 SE7       30.11F
ANNAPOLIS      MOCLDY    70  64  81 SE6       30.10S
FORT MEADE*    PTCLDY    66  63  88 CALM      30.12S

$$

MDZ012-015-019>023-280600-
MARYLAND EASTERN SHORE

CITY           SKY/WX    TMP DP  RH WIND       PRES   REMARKS
OCEAN CITY     CLEAR     70  62  76 SW13      30.15S
SALISBURY      CLEAR     68  60  75 S7        30.14S
BAY BRIDGE AP* PTCLDY    73  64  73 S12G18    30.10S
CAMBRIDGE*     CLEAR     70  63  78 S3        30.12S
EASTON*        CLEAR     74  67  80 SW9       30.15S

$$

MDZ017>025-280600-
SOUTHERN MARYLAND

CITY           SKY/WX    TMP DP  RH WIND       PRES   REMARKS
PATUXENT RIVER CLEAR     72  61  68 S10       30.11S
ST INIGOES     CLEAR     72  63  73 S7        30.12S
LEONARDTOWN*   CLEAR     72  61  68 S5        30.14S

$$

MDZ003>005-280600-
NORTH CENTRAL MARYLAND

CITY           SKY/WX    TMP DP  RH WIND       PRES   REMARKS
FREDERICK*     CLEAR     70  68  94 S3        30.10F
HAGERSTOWN APT PTCLDY    72  66  81 S5        30.09S
WESTMINSTER*   CLEAR     73  70  88 S5        30.10S

$$

MDZ501>502-280600-
WESTERN MARYLAND

CITY           SKY/WX    TMP DP  RH WIND       PRES   REMARKS
OAKLAND*       CLOUDY    64  57  77 S7        30.19F
CUMBERLAND*    CLOUDY    68  68 100 CALM      30.14F VSB 3/4

$$

VAZ025>031-280600-
SHENANDOAH VALLEY

CITY           SKY/WX    TMP DP  RH WIND       PRES   REMARKS
WINCHESTER*    FAIR      70  66  88 SW5       30.10F
FRONT ROYAL*     N/A     64  64 100 CALM      30.10F
LURAY*         FAIR      68  68 100 SW6       30.13S
NEW MARKET*    FAIR      64  63  99 CALM      30.12F
STAUNTON*      FOG       64  64 100 CALM      30.17S VSB 1
WAYNESBORO*    FAIR      66  65  96 CALM      30.16S

$$

WVZ021-048>050-054>055-280600-
EASTERN WEST VIRGINIA PANHANDLE

CITY           SKY/WX    TMP DP  RH WIND       PRES   REMARKS
MARTINSBURG    FAIR      70  65  84 S6        30.08F
PETERSBURG*    FOG       67  67  99 CALM      30.13S VSB 1/4

$$

VAZ036>039-050-280600-
CENTRAL FOOTHILLS

CITY           SKY/WX    TMP DP  RH WIND       PRES   REMARKS
CHARLOTTESVILL FAIR      73  66  78 SW5       30.11F
CULPEPER*      FAIR      72  68  88 CALM      30.11S
ORANGE*        FAIR      72  70  94 SW5       30.13S
GORDONSVILLE*  FAIR      68  67  98 S3        30.11F
WARRENTON*     FAIR      74  63  68 CALM      30.10S

$$

VAZ055>057-280600-
NORTH AND CENTRAL PIEDMONT

CITY           SKY/WX    TMP DP  RH WIND       PRES   REMARKS
FREDERICKSBRG* FAIR      75  67  75 S9        30.10S
STAFFORD*      FAIR      72  65  78 S3        30.14F

$$

NCZ024-NYZ072-PAZ021-071-VAZ022-071-280600-
OTHER REGIONAL OBSERVATIONS

CITY           SKY/WX    TMP DP  RH WIND       PRES   REMARKS
NEW YORK CITY  CLEAR     75  63  66 VRB6      30.10R
PHILADELPHIA   PTCLDY    73  60  63 S8        30.10S
PITTSBURGH     PTCLDY    74  62  66 CALM      30.07S
ROANOKE        FAIR      71  65  81 CALM      30.16S
RICHMOND       FAIR      71  58  63 S10       30.14R
RALEIGH        PTCLDY    70  57  63 S5        30.16S

$$

ANZ530>537-280600-
MARINE OBSERVATIONS

STATION/POSITION TIME  TEMP    WIND        PRES
                       AIR SEA DIR/SP/G
                 (UTC) (F)     (DEG/KT/KT) (MB)
THOMAS PT LIGHT  0500   69 65  180/ 15/ 16 1020.5R
BALT KEY BRIDGE  0400   73     190/  2/  3 1019.1R
COVE POINT       0400   72     200/ 11/ 14 1020.4R
LEWISETTA        0400   73 74  220/  8/ 10 1019.7R
SOLOMONS ISLAND  0400   72 67  200/ 11/ 13   N/A
PINEY POINT      0400          190/  7/  8   N/A

$$




USA.gov is the U.S. government's official web portal to all federal, state and local government web resources and services.